Content
SEND FEEDBACK

Daily
Averages
Monthly
Summary
United States of America

ST. LOUIS, MISSOURI


Home > North America > United States > Missouri
Elevation: 163 meters     Latitude: 38 45N     Longitude: 090 22W

WEATHER
 
SELECT A DAY
Number of Records: 199,638;   Date Range: 1/1/95 - 10/20/14
 
SHARE

PRINT THIS DATA

[ ← Previous Day ]
WEATHER ALMANAC - 13 MAY, 2013
[ Next Day → ]
[ °F ]   °C
Weather ElementAverageHighLow
Temperature14.4 °C23.9 °C (5:54 pm)2.2 °C (5:54 am)
Dewpoint2.9 °C6.1 °C (10:54 pm)-0.6 °C (9:54 am)
Humidity52.3 %93 % (5:54 am)26 % (11:54 am)
Barometer1020.7 hPa1024 hPa (8:54 am)1016.3 hPa (11:54 pm)
Wind Speed4.8 km/h16.7 km/h (9:54 pm)
Weather ElementAverage
Visibility16.1 km
Wind DirectionENE (71.4 °)

Weather ElementTotal
Precipitation---
Heating Degree Days5.3 (Base 18.3)
Growing Degree Days3.1 (Base 10)
Averaged from 22 records on 13 May, 2013
WEATHER CONDITIONS BREAKOUT
WIND DIRECTION BREAKOUT
WEATHER BY HOUR - 13 MAY, 2013
[ °F ]   °C
Local TimeTemperatureDewpointHumidityBarometerVisibilityWind DirectionWind SpeedGust SpeedPrecipitationEventsConditions
1:54 AM3.9 °C1.7 °C86 %1022.4 hPa16.1 kmCalmClear
2:54 AM3.9 °C1.7 °C86 %1022.4 hPa16.1 kmCalmClear
3:54 AM2.8 °C1.1 °C89 %1022.4 hPa16.1 kmCalmClear
4:54 AM2.8 °C1.1 °C89 %1022.4 hPa16.1 kmCalmClear
5:54 AM2.2 °C1.1 °C93 %1022.7 hPa16.1 kmCalmClear
6:54 AM3.3 °C1.7 °C89 %1023.4 hPa16.1 kmCalmClear
7:54 AM7.2 °C4.4 °C82 %1023.7 hPa16.1 kmCalmClear
8:54 AM12.8 °C5 °C59 %1024 hPa16.1 kmWest (280°)5.6 km/hPartly Cloudy
9:54 AM16.7 °C-0.6 °C31 %1023.7 hPa16.1 kmVariable7.4 km/hPartly Cloudy
10:54 AM17.8 °C0 °C30 %1023.4 hPa16.1 kmCalmClear
11:54 AM19.4 °C-0.6 °C26 %1023 hPa16.1 kmSSW (210°)9.3 km/hClear
12:54 PM20 °C2.8 °C32 %1022.4 hPa16.1 kmSouth (170°)13 km/hPartly Cloudy
1:54 PM21 °C1 °C27 %1021.3 hPa16.1 kmVariable5.6 km/hClear
3:54 PM23.3 °C3.3 °C27 %1019.3 hPa16.1 kmSouth (180°)5.6 km/hPartly Cloudy
4:54 PM23.3 °C3.3 °C27 %1018.6 hPa16.1 kmSSE (150°)9.3 km/hClear
5:54 PM23.9 °C3.3 °C26 %1017.9 hPa16.1 kmCalmClear
6:54 PM22 °C5 °C33 %1017.6 hPa16.1 kmSSE (150°)5.6 km/hScattered Clouds
7:54 PM20.6 °C5 °C36 %1017.3 hPa16.1 kmSE (140°)9.3 km/hScattered Clouds
8:54 PM18.9 °C5 °C40 %1016.9 hPa16.1 kmSE (140°)9.3 km/hScattered Clouds
9:54 PM17.8 °C5.6 °C45 %1016.6 hPa16.1 kmSSE (150°)16.7 km/hClear
10:54 PM16.7 °C6.1 °C50 %1016.6 hPa16.1 kmCalmClear
11:54 PM17.2 °C6.1 °C48 %1016.3 hPa16.1 kmVariable7.4 km/hClear
Hourly data recorded from KSUS, located 0 kilometers away from St. Louis, Missouri







STORIES FROM OUR PARTNERS